This is the latest recevied weather packets stored in our database for station/object DB0MGN-WX. If no packets are shown the sender has not sent any weather packets the latest 1 day(s).
| Time | Temp. | Humidity | Pressure | Rain* | Wind** | Luminosity | Snow |
|---|---|---|---|---|---|---|---|
| 1778070491 | 18.89° C | 56% | 1004.8 hPa | - | - | - | - |
| 1778070431 | 18.89° C | 55% | 1004.8 hPa | - | - | - | - |
| 1778070311 | 18.89° C | 55% | 1004.8 hPa | - | - | - | - |
| 1778070251 | 18.89° C | 55% | 1004.7 hPa | - | - | - | - |
| 1778070191 | 18.33° C | 55% | 1004.8 hPa | - | - | - | - |
| 1778070131 | 18.33° C | 54% | 1004.8 hPa | - | - | - | - |
| 1778069350 | 18.33° C | 54% | 1004.8 hPa | - | - | - | - |
| 1778069290 | 18.33° C | 53% | 1004.8 hPa | - | - | - | - |
| 1778069230 | 18.89° C | 53% | 1004.8 hPa | - | - | - | - |
| 1778069170 | 18.33° C | 53% | 1004.9 hPa | - | - | - | - |
| 1778069110 | 18.33° C | 53% | 1004.9 hPa | - | - | - | - |
| 1778068629 | 17.78° C | 58% | 1004.8 hPa | - | - | - | - |
| 1778068569 | 17.78° C | 58% | 1004.8 hPa | - | - | - | - |
| 1778068509 | 17.78° C | 59% | 1004.8 hPa | - | - | - | - |
| 1778068449 | 17.78° C | 57% | 1004.9 hPa | - | - | - | - |
| 1778068389 | 17.78° C | 57% | 1004.8 hPa | - | - | - | - |
| 1778068329 | 17.78° C | 57% | 1004.9 hPa | - | - | - | - |
| 1778068269 | 17.78° C | 58% | 1004.9 hPa | - | - | - | - |
| 1778068209 | 17.78° C | 58% | 1004.7 hPa | - | - | - | - |
| 1778067488 | 17.22° C | 58% | 1005 hPa | - | - | - | - |
| 1778067428 | 17.22° C | 58% | 1004.9 hPa | - | - | - | - |
| 1778067308 | 17.22° C | 59% | 1004.8 hPa | - | - | - | - |
| 1778067248 | 17.22° C | 59% | 1004.9 hPa | - | - | - | - |
| 1778066467 | 18.33° C | 55% | 1004.8 hPa | - | - | - | - |
| 1778066407 | 18.33° C | 55% | 1004.8 hPa | - | - | - | - |
* Rain since midnight (hover to see other rain measurements)
** Current wind speed in m/s (hover to see current wind gust speed)